Regional Weather Roundup
Issued by NWS

Home | Current Version | Previous Version | Graphics & Text | Print | Product List | Glossary On
Versions: 1 2 3 4 5 6 7 8 9 10 11 12 13 14 15 16 17 18 19 20 21 22 23 24 25 26 27 28 29 30 31 32 33 34 35 36 37 38 39 40 41 42 43 44 45 46 47 48 49 50
000
ASUS43 KDMX 300103
RWRIA

WEATHER ROUNDUP FOR IOWA
NATIONAL WEATHER SERVICE DES MOINES IA
800 PM CDT FRI JUL 29 2016

NOTE: "FAIR" INDICATES FEW OR NO CLOUDS BELOW 12,000 FEET WITH NO
SIGNIFICANT WEATHER AND/OR OBSTRUCTIONS TO VISIBILITY.

* - THESE STATIONS ARE NOT NWS STATIONS...THUS NOT UNDER NWS
QUALITY CONTROL.  THEY ALSO DO NOT REPORT WEATHER SUCH
AS PRECIPITATION OR FOG.

IAZ001>003-012>014-020>022-031>034-043>046-300200-
   NORTHWEST IOWA

CITY           SKY/WX    TMP DP  RH WIND       PRES   REMARKS
CARROLL *      CLOUDY    70  63  78 CALM      30.02R
CHEROKEE *     PTCLDY    72  62  71 NE3       30.02S
DENISON *      PTCLDY    72  63  73 E7        30.01R
LE MARS *      CLEAR     75  59  57 NE7       30.03R
SHELDON *      CLEAR     72  59  64 NE5       30.02S
SIOUX CITY     PTCLDY    77  60  55 NE8       30.01S
SPENCER        CLEAR     72  57  59 NE7       30.03S
STORM LAKE *   MOCLDY    70  64  83 E6        30.03S
$$

IAZ055>058-069>071-079>083-090>094-300200-
   SOUTHWEST IOWA

CITY           SKY/WX    TMP DP  RH WIND       PRES   REMARKS
ATLANTIC *     PTCLDY    72  63  73 NE9       30.01R
CLARINDA *       N/A     73  66  78 MISG      30.01S
COUNCIL BLFS * CLEAR     73  63  68 NE7       30.01S
CRESTON *      CLOUDY    70  63  78 NE9       30.02S
HARLAN  *      MOCLDY    72  63  73 NE10      30.05R
LAMONI         CLEAR     70  64  81 N7        29.99S
RED OAK *      CLEAR     73  64  73 NE10      30.01R
SHENANDOAH *   CLEAR     75  66  73 N6        30.00S
$$

IAZ047>049-059>061-072>074-084-300200-
   CENTRAL IOWA

CITY           SKY/WX    TMP DP  RH WIND       PRES   REMARKS
AMES           CLOUDY    71  67  87 NW5       29.99S
ANKENY *         N/A    N/A N/A N/A MISG        N/A
BOONE *        CLOUDY    70  64  83 CALM      29.99S
CHARITON *       N/A    N/A N/A N/A MISG        N/A
DES MOINES     MOCLDY    71  64  78 N5        29.99S
GRINNELL*      CLOUDY    69  64  83 NE6       29.99S
KNOXVILLE *    CLOUDY    70  64  83 NW6       29.97F
MARSHALLTOWN   MOCLDY    69  65  86 N7        29.99R
NEWTON *       CLOUDY    72  68  88 N8        29.98R
PELLA *        MOCLDY    69  66  93 CALM      29.99S
PERRY *        CLOUDY    70  66  88 CALM      30.01S
$$

IAZ004>006-015-016-023>025-035-036-300200-
   NORTH CENTRAL IOWA

CITY           SKY/WX    TMP DP  RH WIND       PRES   REMARKS
ALGONA *       CLOUDY    70  64  83 CALM      30.03S
ESTHERVILLE    CLEAR     70  60  70 N9        30.03S
FORT DODGE *   CLOUDY    70  63  78 N5        30.02S
MASON CITY     CLOUDY    71  64  78 CALM      30.03S
FOREST CITY *  CLOUDY    70  63  78 N5        30.02S
IOWA FALLS *   MOCLDY    71  64  79 N3        30.01S
$$

IAZ007>011-017>019-026>030-037>042-050>054-066-300200-
   NORTHEAST IOWA

CITY           SKY/WX    TMP DP  RH WIND       PRES   REMARKS
CEDAR RAPIDS   CLOUDY    69  68  96 N8        29.97R
CHARLES CITY * CLOUDY    70  66  88 N3        30.01S
CLINTON *      PTCLDY    68  64  87 E6        29.96R
DECORAH *      CLOUDY    68  66  94 E5        30.01R
DUBUQUE        CLOUDY    70  66  87 NE5       29.99R
MONTICELLO *   CLOUDY    70  66  88 NE6       29.97S
OELWEIN *      PTCLDY    68  64  88 NE6       30.00S
WATERLOO       CLOUDY    70  64  81 E6        29.98S
$$

IAZ064-065-067-068-078-300200-
   EAST CENTRAL IOWA

CITY           SKY/WX    TMP DP  RH WIND       PRES   REMARKS
DAVENPORT      PTCLDY    70  65  84 E7        29.95S
IOWA CITY      CLOUDY    72  66  81 N9        29.97R
MT. PLEASANT * PTCLDY    76  68  76 NW9       29.95R
MUSCATINE *    CLOUDY    75  68  78 N8        29.94S
QUAD CITIES    MOCLDY    73  66  78 E9        29.93R
$$

IAZ062-063-075>077-085>089-095>099-300200-
   SOUTHEAST IOWA

CITY           SKY/WX    TMP DP  RH WIND       PRES   REMARKS
BURLINGTON     PTCLDY    73  67  81 NW5       29.94R
FAIRFIELD *    PTCLDY    70  66  88 N9        29.96S
KEOKUK *       CLEAR     75  66  73 CALM      29.94R
CENTERVILLE *    N/A     70  64  83 N7        29.99R
OTTUMWA        PTCLDY    68  65  90 N9        29.97S
WASHINGTON *   CLOUDY    72  68  88 NW8       29.97R
$$

ABBREVIATIONS USED IN REMARKS
   TC - TEMPERATURES IN CELSIUS
  WCI - WIND CHILL INDEX
   HX - HEAT INDEX
  VSB - VISIBILITY
$$





USA.gov is the U.S. government's official web portal to all federal, state and local government web resources and services.